sat.trackr.live / text

‹ back to catalog

STARLINK-37036

NORAD 68077 · 2026-042J

PAYLOAD ACTIVE UNKNOWN

§ Identity

Operator
Country
US
Launch date
2026-03-04
Launch site
AFETR
Launch vehicle
Mass (kg)
RCS (m²)

Purposes: comms

External: N2YO · Heavens-Above · Gunter

§ Orbital elements

Epoch: 2026-09-19T12:19:54.136128Z

Period
93.85 min
Inclination
53.1592°
Eccentricity
0.0002975
Mean motion
15.34406926 rev/d
Perigee alt
460.6 km
Apogee alt
464.7 km
Semi-major
6,840.8 km
B*
4.5906e-4
RAAN
352.5165°
Arg perigee
92.2267°
Mean anomaly
267.9076°
Rev number
3,206

§ Raw data

STARLINK-370361 68077U 26042J   26262.51382102  .00015169  00000+0  45906-3 0  99902 68077  53.1592 352.5165 0002975  92.2267 267.9076 15.34406926 32061

JSON: /api/v1/satellites/68077 · /tle

For live sub-satellite position, see the globe view (requires WebGL).

§ Visibility from observer

Set your observer location to see the next 7 days of passes ≥ 10°. The values pass through the URL so the page stays shareable.

No JS? Fill the form by hand. The geolocation button needs JavaScript.